{"data":{"norad_id":64154,"epoch":"2026-05-25T03:18:53.334720Z","epoch_age_seconds":73269,"freshness":"FRESH","line1":"1 64154U 25112J   26145.13811730  .00001980  00000+0  14125-3 0  9996","line2":"2 64154  97.4485 205.0191 0002142 154.1183 206.0151 15.05653833 55362","mean_motion":15.05653833,"eccentricity":0.0002142,"inclination_deg":97.4485,"raan_deg":205.0191,"arg_perigee_deg":154.1183,"mean_anomaly_deg":206.0151,"bstar":0.00014125,"rev_number":5536,"period_min":95.639513441866,"perigee_km":548.01549700039,"apogee_km":550.98329643274,"semimajor_km":6927.6363967166,"source":"CELESTRAK","updated_at":"2026-05-25T13:38:20.303901Z"}}